User: anonymous   Login
Location: Girdwood
(60.9430°N, 149.1660°W)
Time: 22:27:49
(UTC-08:00)
Language:

Iridium 86 - Orbit

View from above orbital plane
View from above orbital plane
View from above satellite
View from above satellite

Ground track
Ground track

The orbit data is extracted from the following two-line orbital elements,

1 25528U 98066B   17264.60299317 +.00000098 +00000-0 +28062-4 0  9997
2 25528 086.3940 309.4894 0002400 090.3794 269.7677 14.34219075992942
Epoch (UTC): 21 September 2017 14:28:18
Eccentricity: 0.0002400
inclination: 86.3940°
perigee height: 776 km
apogee height: 779 km
right ascension of ascending node: 309.4894°
argument of perigee: 90.3794°
revolutions per day: 14.34219075
mean anomaly at epoch: 269.7677°
orbit number at epoch: 99294

The dashed part of the orbit path shows where the satellite is in the earth's shadow,  

DLR